• In Belgium
  • List of Countries
  • For 7 days
  • Water Temperature
  • Satellite Maps
  • Weather Map
  • Weather Widgets
  • user-avatar
    Login

    Hourly Weather Armawir

    Today, 25 September, Tuesday

    Time Temperature Precipitation Wind Pressure Humidity
    00:00 +20°C° 0 mm 1 mps 689 mmHg 58%
    01:00 +20°C° 0 mm 1 mps 689 mmHg 60%
    02:00 +19°C° 0 mm 1 mps 689 mmHg 61%
    03:00 +19°C° 0 mm 1 mps 688 mmHg 65%
    04:00 +19°C° 0 mm 1 mps 688 mmHg 65%
    05:00 +18°C° 0 mm 1 mps 688 mmHg 65%
    06:00 +18°C° 0 mm 1 mps 688 mmHg 66%
    07:00 +20°C° 0 mm 1 mps 688 mmHg 56%
    08:00 +23°C° 0 mm 1 mps 689 mmHg 47%
    09:00 +25°C° 0 mm 2 mps 689 mmHg 38%
    10:00 +26°C° 0 mm 2 mps 689 mmHg 35%
    11:00 +28°C° 0 mm 2 mps 688 mmHg 32%
    12:00 +29°C° 0 mm 2 mps 688 mmHg 29%
    13:00 +29°C° 0 mm 2 mps 688 mmHg 28%
    14:00 +30°C° 0 mm 2 mps 688 mmHg 27%
    15:00 +30°C° 0 mm 2 mps 687 mmHg 26%
    16:00 +28°C° 0 mm 2 mps 687 mmHg 30%
    17:00 +26°C° 0 mm 1 mps 687 mmHg 34%
    18:00 +24°C° 0 mm 1 mps 686 mmHg 38%
    19:00 +24°C° 0 mm 1 mps 687 mmHg 41%
    20:00 +23°C° 0 mm 1 mps 687 mmHg 44%
    21:00 +22°C° 0 mm 1 mps 687 mmHg 47%
    22:00 +22°C° 0.1 mm 1 mps 687 mmHg 51%
    23:00 +21°C° 0.1 mm 1 mps 687 mmHg 55%

    Tomorrow, 26 September, Wednesday

    Time Temperature Precipitation Wind Pressure Humidity
    00:00 +21°C° 0.1 mm 1 mps 687 mmHg 59%
    01:00 +19°C° 0.3 mm 2 mps 687 mmHg 62%
    02:00 +19°C° 0.3 mm 2 mps 687 mmHg 65%
    03:00 +18°C° 0.3 mm 2 mps 687 mmHg 69%
    04:00 +18°C° 0.4 mm 2 mps 687 mmHg 70%
    05:00 +17°C° 0.4 mm 2 mps 687 mmHg 72%
    06:00 +17°C° 0.4 mm 2 mps 687 mmHg 73%
    07:00 +19°C° 0.1 mm 2 mps 687 mmHg 65%
    08:00 +21°C° 0.1 mm 2 mps 688 mmHg 56%
    09:00 +24°C° 0.1 mm 2 mps 688 mmHg 48%
    10:00 +25°C° 0.2 mm 2 mps 688 mmHg 44%
    11:00 +26°C° 0.2 mm 2 mps 688 mmHg 40%
    12:00 +28°C° 0.2 mm 2 mps 688 mmHg 36%
    13:00 +28°C° 0.2 mm 2 mps 688 mmHg 35%
    14:00 +28°C° 0.2 mm 2 mps 688 mmHg 34%
    15:00 +28°C° 0.2 mm 2 mps 687 mmHg 33%
    16:00 +27°C° 0.3 mm 2 mps 687 mmHg 38%
    17:00 +25°C° 0.3 mm 2 mps 687 mmHg 42%
    18:00 +24°C° 0.3 mm 2 mps 687 mmHg 47%
    19:00 +23°C° 0.1 mm 2 mps 688 mmHg 52%
    20:00 +21°C° 0.1 mm 2 mps 688 mmHg 57%
    21:00 +20°C° 0.1 mm 3 mps 689 mmHg 62%
    22:00 +19°C° 0.1 mm 2 mps 689 mmHg 64%
    23:00 +19°C° 0.1 mm 2 mps 689 mmHg 67%

    Day after tomorrow, 27 September, Thursday

    Time Temperature Precipitation Wind Pressure Humidity
    00:00 +18°C° 0.1 mm 2 mps 689 mmHg 69%
    01:00 +18°C° 0 mm 2 mps 689 mmHg 71%
    02:00 +17°C° 0 mm 2 mps 689 mmHg 73%
    03:00 +17°C° 0 mm 2 mps 689 mmHg 74%
    04:00 +17°C° 0 mm 2 mps 690 mmHg 76%
    05:00 +16°C° 0 mm 2 mps 690 mmHg 77%
    06:00 +16°C° 0 mm 2 mps 690 mmHg 78%
    07:00 +19°C° 0 mm 1 mps 690 mmHg 70%
    08:00 +20°C° 0 mm 1 mps 691 mmHg 62%
    09:00 +22°C° 0 mm 1 mps 691 mmHg 55%
    10:00 +23°C° 0 mm 1 mps 691 mmHg 50%
    11:00 +25°C° 0 mm 1 mps 691 mmHg 46%
    12:00 +26°C° 0 mm 2 mps 691 mmHg 41%
    13:00 +26°C° 0 mm 2 mps 691 mmHg 39%
    14:00 +27°C° 0 mm 2 mps 691 mmHg 38%
    15:00 +27°C° 0 mm 2 mps 690 mmHg 36%
    16:00 +26°C° 0 mm 2 mps 690 mmHg 40%
    17:00 +24°C° 0 mm 2 mps 690 mmHg 45%
    18:00 +23°C° 0 mm 2 mps 690 mmHg 49%
    19:00 +21°C° 0 mm 2 mps 691 mmHg 53%
    20:00 +20°C° 0 mm 2 mps 691 mmHg 58%
    21:00 +19°C° 0 mm 2 mps 691 mmHg 63%
    22:00 +19°C° 0 mm 2 mps 691 mmHg 65%
    23:00 +18°C° 0 mm 2 mps 691 mmHg 68%

    28 September, Friday

    Time Temperature Precipitation Wind Pressure Humidity
    00:00 +19°C° 0 mm 1 mps 691 mmHg 71%
    01:00 +18°C° 0 mm 1 mps 691 mmHg 72%
    02:00 +18°C° 0 mm 1 mps 691 mmHg 73%
    03:00 +16°C° 0 mm 1 mps 691 mmHg 74%
    04:00 +16°C° 0 mm 1 mps 691 mmHg 76%
    05:00 +16°C° 0 mm 1 mps 691 mmHg 77%
    06:00 +15°C° 0 mm 1 mps 691 mmHg 78%
    07:00 +19°C° 0 mm 1 mps 691 mmHg 69%
    08:00 +21°C° 0 mm 1 mps 691 mmHg 60%
    09:00 +23°C° 0 mm 1 mps 692 mmHg 52%
    10:00 +24°C° 0 mm 1 mps 691 mmHg 47%
    11:00 +25°C° 0 mm 2 mps 691 mmHg 42%
    12:00 +27°C° 0 mm 2 mps 691 mmHg 37%
    13:00 +27°C° 0 mm 2 mps 691 mmHg 35%
    14:00 +28°C° 0 mm 2 mps 690 mmHg 34%
    15:00 +28°C° 0 mm 2 mps 690 mmHg 32%
    16:00 +26°C° 0 mm 2 mps 690 mmHg 37%
    17:00 +25°C° 0 mm 2 mps 689 mmHg 41%
    18:00 +23°C° 0 mm 1 mps 689 mmHg 46%
    19:00 +21°C° 0 mm 2 mps 689 mmHg 50%
    20:00 +21°C° 0 mm 2 mps 689 mmHg 55%
    21:00 +20°C° 0 mm 2 mps 690 mmHg 60%
    22:00 +20°C° 0 mm 2 mps 690 mmHg 63%
    23:00 +19°C° 0 mm 2 mps 689 mmHg 66%

    29 September, Saturday

    Time Temperature Precipitation Wind Pressure Humidity
    00:00 +19°C° 0 mm 2 mps 689 mmHg 70%
    01:00 +19°C° 0 mm 1 mps 689 mmHg 72%
    02:00 +19°C° 0 mm 1 mps 689 mmHg 73%
    03:00 +18°C° 0 mm 1 mps 689 mmHg 75%
    04:00 +18°C° 0 mm 1 mps 689 mmHg 76%
    05:00 +18°C° 0 mm 1 mps 688 mmHg 76%
    06:00 +16°C° 0 mm 1 mps 688 mmHg 77%
    07:00 +19°C° 0 mm 1 mps 689 mmHg 67%
    08:00 +22°C° 0 mm 1 mps 689 mmHg 57%
    09:00 +24°C° 0 mm 1 mps 689 mmHg 47%
    10:00 +25°C° 0 mm 2 mps 689 mmHg 42%
    11:00 +27°C° 0 mm 2 mps 689 mmHg 37%
    12:00 +28°C° 0 mm 2 mps 688 mmHg 32%
    13:00 +28°C° 0 mm 2 mps 688 mmHg 31%
    14:00 +29°C° 0 mm 2 mps 687 mmHg 29%
    15:00 +29°C° 0 mm 2 mps 687 mmHg 28%
    16:00 +27°C° 0 mm 2 mps 687 mmHg 32%
    17:00 +26°C° 0 mm 2 mps 687 mmHg 36%
    18:00 +24°C° 0 mm 1 mps 686 mmHg 40%
    19:00 +23°C° 0 mm 1 mps 687 mmHg 42%
    20:00 +23°C° 0 mm 1 mps 687 mmHg 44%
    21:00 +21°C° 0 mm 2 mps 688 mmHg 46%
    22:00 +20°C° 0 mm 2 mps 687 mmHg 47%
    23:00 +21°C° 0 mm 1 mps 687 mmHg 48%

    30 September, Sunday

    Time Temperature Precipitation Wind Pressure Humidity
    00:00 +21°C° 0 mm 1 mps 687 mmHg 50%
    01:00 +20°C° 0 mm 1 mps 687 mmHg 50%
    02:00 +20°C° 0 mm 1 mps 687 mmHg 51%
    03:00 +19°C° 0 mm 1 mps 687 mmHg 51%
    04:00 +19°C° 0 mm 1 mps 687 mmHg 51%
    05:00 +18°C° 0 mm 1 mps 688 mmHg 52%
    06:00 +18°C° 0 mm 1 mps 688 mmHg 52%
    07:00 +20°C° 0 mm 1 mps 688 mmHg 45%
    08:00 +23°C° 0 mm 1 mps 689 mmHg 39%
    09:00 +25°C° 0 mm 1 mps 689 mmHg 32%
    10:00 +27°C° 0 mm 1 mps 689 mmHg 30%
    11:00 +28°C° 0 mm 1 mps 689 mmHg 27%
    12:00 +29°C° 0 mm 2 mps 689 mmHg 25%
    13:00 +29°C° 0 mm 2 mps 688 mmHg 24%
    14:00 +30°C° 0 mm 2 mps 688 mmHg 23%
    15:00 +30°C° 0 mm 2 mps 688 mmHg 22%
    16:00 +28°C° 0 mm 2 mps 688 mmHg 26%
    17:00 +26°C° 0 mm 1 mps 688 mmHg 29%
    18:00 +24°C° 0 mm 1 mps 688 mmHg 32%
    19:00 +24°C° 0 mm 1 mps 688 mmHg 36%
    20:00 +23°C° 0 mm 2 mps 688 mmHg 40%
    21:00 +21°C° 0 mm 2 mps 689 mmHg 43%
    22:00 +21°C° 0 mm 2 mps 689 mmHg 47%
    23:00 +20°C° 0 mm 2 mps 689 mmHg 50%
    Show more